Home > Weather > Newmarket > Past weeks

Flag for Canada Weather for the Past 2 Weeks in Newmarket, Ontario, Canada

Now
45 °F

Light rain. Overcast.


Feels Like: 41 °F
Forecast: 42 / 47 °F
Wind: 6 mph from East

Location: Borden

Current Time: May 1, 2016 at 6:11:41 AM

Latest Report: May 1, 2016 at 5:00 AM


Visibility: 9 mi

Pressure: 30.06 "Hg

Humidity: 81%

Dew Point: 39 °F

Location of NewmarketLocation

Historic Weather in Newmarket — Graph

°F

Newmarket Temperature Yesterday

Maximum temperature yesterday: 63 °F (at 2:00 PM)
Minimum temperature yesterday: 23 °F (at 6:00 AM)
Average temperature yesterday: 45 °F

High & Low Weather Summary for the Past Weeks

 TemperatureHumidityPressure
High79 °F (Apr 18, 2:00 PM)100% (Apr 22, 1:00 AM)30.49 "Hg (Apr 22, 1:00 AM)
Low19 °F (Apr 27, 6:00 AM)19% (Apr 20, 6:00 PM)29.78 "Hg (Apr 22, 5:00 AM)
Average44 °F63%30.14 "Hg
* Reported Apr 16 4:00 AM — May 1 4:00 AM, Newmarket, Weather by CustomWeather, © 2016

Note: Actual official high and low records may vary slightly from our data, if they occured in-between our weather recording intervals... More about our weather records

Advertising

Newmarket Weather History for the Previous 24 Hours

Scroll right to see more
 ConditionsComfort  
Time TempWeatherWind HumidityBarometerVisibility
4:00 AM
Sun, May 1
45 °FLight rain. Overcast.2 mph76%30.05 "Hg9 mi
3:00 AM46 °FOvercast.5 mph66%30.06 "Hg9 mi
2:00 AM46 °FOvercast.No wind62%30.08 "Hg9 mi
1:00 AM46 °FMostly cloudy.No wind57%30.09 "Hg9 mi
12:00 AM48 °FOvercast.5 mph50%30.10 "Hg9 mi
11:00 PM
Sat, Apr 30
46 °FClear.No wind50%30.12 "Hg9 mi
10:00 PM46 °FClear.2 mph50%30.13 "Hg9 mi
9:00 PM50 °FSunny.5 mph37%30.13 "Hg9 mi
8:00 PM54 °FPassing clouds.8 mph30%30.14 "Hg9 mi
7:00 PM57 °FSunny.12 mph27%30.14 "Hg9 mi
6:00 PM59 °FSunny.13 mph27%30.15 "Hg9 mi
5:00 PM61 °FSunny.12 mph23%30.14 "Hg9 mi
4:00 PM61 °FPassing clouds.14 mph25%30.15 "Hg9 mi
3:00 PM61 °FSunny.12 mph25%30.17 "Hg9 mi
2:00 PM63 °FSunny.5 mph22%30.18 "Hg9 mi
1:00 PM59 °FPassing clouds.10 mph27%30.19 "Hg9 mi
12:00 PM59 °FSunny.8 mph29%30.21 "Hg9 mi
11:00 AM55 °FSunny.8 mph31%30.23 "Hg9 mi
10:00 AM52 °FSunny.7 mph44%30.23 "Hg9 mi
9:00 AM45 °FSunny.2 mph61%30.24 "Hg9 mi
8:00 AM36 °FSunny.No wind87%30.24 "Hg9 mi
7:00 AM27 °FClear.No wind86%30.23 "Hg9 mi
6:00 AM23 °FClear.No wind93%30.24 "Hg9 mi
Weather by CustomWeather, © 2016

See weather overviewHow to use our weather pages